COSMOS 1818 COOLANT

Satellite information

Favourite Embed

Satellite Type and Status

DEBRISIN ORBIT

Key statistics

Satellite COSMOS 1818 COOLANT at a glance.

Uptime

14196

Days in orbit

Revolutions

≈ 14.4

Per day

Orbit

LEO

Low Earth Orbit

Inclination

65.0

Latest

Satellite identification and parameters

Extended collection of information and parameters for COSMOS 1818 COOLANT.

Object identification

Identified? True

Debris? False

Object name: COSMOS 1818 COOLANT

International designator: 1987-011V

Object number (NORAD): 36941

Object ID (CCSDS): 36941

Country: COMMONWEALTH OF INDEPENDENT STATES (CIS)

Current information (Y/N): Y

RCS size: SMALL

Orbital parameters

Period: 99.985 minutes

Inclination: 65.0023 deg

SMA: 7135.918 km

Apoapsis: 767.401 km

Periapsis: 748.165 km

RAAN: 334.9627 deg

Eccentricy: 0.00134777

Argument of periapsis: 277.6771 deg

Mean anomaly: 82.2787 deg

Mean motion: 14.40217187 rev/day

Mean motion (dot): 0.00002287 rev/day2

B* drag term: 0.00075253277 1/REarth

Two-line elements (TLE)

Creation date: Dec. 11, 2025, 3:54 a.m.

Reference frame: TEME

Reference center: EARTH

Epoch: Dec. 10, 2025, 4:50 p.m. UTC

TLE line 0: 0 COSMOS 1818 COOLANT

TLE line 1: 1 36941U 87011V 25344.70175836 .00002287 00000-0 75253-3 0 9999

TLE line 2: 2 36941 65.0023 334.9627 0013478 277.6771 82.2787 14.40217187316408

Live tracking on map

Real-time ground track for satellite COSMOS 1818 COOLANT.

In-orbit conjunctions

A list of the most updated potential collisions computed for object COSMOS 1818 COOLANT.

Target Orbit TCA Probability of collision Miss distance Type
SL-8 DEB LEO 2025-09-18 19:45:49 0.0001036064 545.0 (m) DEBRIS
FENGYUN 1C DEB SSO 2024-11-16 00:52:25 0.0002125892 300.0 (m) DEBRIS
METEOR 2-8 DEB LEO 2024-11-11 14:50:32 0.0007905982 286.0 (m) DEBRIS
NOAA 16 DEB SSO 2024-09-10 13:02:57 0.000175573 33.0 (m) DEBRIS
NOAA 16 DEB SSO 2024-08-29 15:00:57 0.00018931 128.0 (m) DEBRIS

Associated space launch

Nuclear-powered magnetospheric research satellite

COSMOS 1818 COOLANT was lifted into orbit during the mission ‘Tsiklon-2 | Plasma-A 1’, on board a Tsiklon-2 space rocket.

The launch took place on Feb. 1, 1987, 11:30 p.m. from 90.

For more information about the launch, click the button.

Launch to space Tsiklon-2 | Plasma-A 1
Tsiklon-2 | Plasma-A 1

Agency: N/A

Status: Launch Successful

Launch date: Feb. 1, 1987, 11:30 p.m. UTC

Rocket: Tsiklon-2

Launch pad: 90

Location: Baikonur Cosmodrome, Republic of Kazakhstan

...

Latest news about this satellite

There are no fresh news available about this satellite. Check back as we update our databases every day.


Newsletter sign-up

Weekly statistics, charts and insights to help you stay on top of the space industry.